LIMF Airport Information

Runway Information
Runway 18 Length 10827 ft width 197 ft
Elevation 981 ft Threshold 2378 ft Heading 183
Runway 36 Length 10827 ft Width 197 ft
Elevation 933 ft Threshold 1148 ft Heading 3
Airport Frequencies
Type APP Name APP Frequency 23.44 MHZ
Type APP Name APP Frequency 129.275 MHZ
Type ATIS Name ATIS Frequency 120.475 MHZ
Type GND Name GND Frequency 121.7 MHZ
Type TWR Name TWR Frequency 118.5 MHZ
Airport Navaids
Type TACAN Name Caselle Frequency 109500 KHZ
Type NDB Name Caselle Frequency 357 KHZ
Type VOR-DME Name Caselle Frequency 116750 KHZ
Type VOR-DME Name Torino Frequency 114500 KHZ
Type NDB Name Torino Frequency 393 KHZ
Airport Weather Information & NOTAM
ADDS - METARS form results

(0926 UTC 23 July 2018)
 
METAR text: LIMF 230920Z VRB03KT CAVOK 26/16 Q1013
Conditions at: LIMF (TORINO/CASELLE , IT) observed 0920 UTC 23 July 2018
Temperature: 26.0°C (79°F)
Dewpoint: 16.0°C (61°F) [RH = 54%]
Pressure (altimeter): 29.91 inches Hg (1013.0 mb)
Winds: variable direction winds at 3 MPH (3 knots; 1.6 m/s)
Visibility: 6 or more miles (10+ km)
Ceiling: ceiling and visibility are OK
Clouds: unknown
Weather: no significant weather observed at this time

METAR text: LIMF 230850Z 13005KT 090V170 CAVOK 25/14 Q1013
Conditions at: LIMF (TORINO/CASELLE , IT) observed 0850 UTC 23 July 2018
Temperature: 25.0°C (77°F)
Dewpoint: 14.0°C (57°F) [RH = 50%]
Pressure (altimeter): 29.91 inches Hg (1013.0 mb)
Winds: from the SE (130 degrees) at 6 MPH (5 knots; 2.6 m/s)
Visibility: 6 or more miles (10+ km)
Ceiling: ceiling and visibility are OK
Clouds: unknown
Weather: no significant weather observed at this time